Terug naar catalogus

STARLINK-30776

ActiefCommunicatieVLEO
NORAD 58136·PAYLOAD·🇺🇸 United States

Gelanceerd Oct 22, 2023 vanaf Cape Canaveral Space Force Station

Loading…

Volgende Passages (komende 24 uur)

TLE

VersSource: CelesTrak SupGP

Epoch: Sep 15, 2026, 03:33 UTC

1 58136C 23162U   26258.14840278  .00454600  00000+0  43347-2 0  2583
2 58136  42.9843 118.4213 0029660 252.0783 263.2572 15.65030018    12

Volg STARLINK-30776 in realtime met AllMySat

Download on the App Store